星链-32850 (STARLINK-32850)

导读

STARLINK-32850是美国太空探索技术公司(SpaceX)星链(Starlink)卫星互联网项目的一颗低轨卫星,于2025年2月11日发射入轨,隶属于星链星座部署计划。作为星链组网卫星,它主要承担卫星互联网通信服务任务,助力实现全球范围内高速宽带网络覆盖,服务地面偏远地区通信等场景,延续星链项目的部署节奏。

基本信息
目录编号:
62950
目录名称:
STARLINK-32850
国际标识:
2025-029C
轨道中心:
EARTH
卫星名称:
星链-32850
卫星全名:
星链-32850 (STARLINK-32850)
卫星状态:
在轨 (已飞行488 天)
发射日期:
2025-02-11 UTC
国别 :
美国 (US)
星等 :
--
轨道信息
数据来源 国际轨道数据 AOE轨道数据
星历时间 2026-06-13T13:52:21+0800
1天前
查看轨道信息
2026-06-13T18:00:00+0800
21小时前
查看轨道信息
半长轴 6848.841km 6848.895km
偏心率 0.0001297 0.0001191
轨道倾角 53.157° 53.155°
近地点辐角 85.456° 78.798°
升交点赤经 148.179° 147.381°
平近点角 274.659° 150.172°
近地点 469.815km 469.942km
远地点 471.593km 471.574km
周期 94.012分钟 94.014分钟
每日圈数 15.317121 15.316941
详细信息
固有亮度:
5
最大亮度:
2.5
卫星平台:
Starlink V1.0
覆盖范围:
全球
运营商:
太空探索技术公司
运营商所在国:
美国
制造商(研发单位):
太空探索技术公司
制造商所在国:
美国
使用方式:
暂无
卫星简介
Starlink 计划是 SpaceX 推出的全球卫星互联网项目,通过发射低轨道卫星,为全球尤其是偏远地区提供高速、低延迟的互联网服务。自 2019 年起,Starlink 已部署数千颗卫星,旨在缩小全球数字鸿沟,推动互联网普及。该项目还为军事、航空等行业提供通信支持,带来广泛经济效益。
2D轨道图
3D轨道图
轨道高度分析图
轨道倾角分析图
轨道综合分析图
查看轨道综合分析图